Wind_Speed
42 41 33 40 40 39 43 51 58 49 52 54 53 49 46 44 44 43 43 44 45 43 42 41 39 38 36 35 35 33 33 31 26 23 21 18 17 16 16 16 17 16 16
40 41 36 42 36 40 40 49 42 62 50 59 53 50 47 44 44 43 42 44 44 43 42 41 39 39 37 36 36 34 34 32 30 26 22 20 18 17 18 18 19 18 18
35 40 32 34 45 38 42 39 28 63 53 56 54 50 47 44 42 41 42 41 42 41 40 41 39 39 38 37 37 36 35 35 33 30 24 23 21 19 19 19 20 21 20
24 30 32 39 38 42 39 52 29 32 64 51 51 55 49 44 41 41 42 41 40 39 39 40 40 40 38 37 38 38 37 37 36 33 28 26 23 21 20 21 21 22 21
16 25 30 33 32 32 33 41 44 31 47 55 50 43 49 46 43 42 42 42 41 41 40 40 41 40 39 38 38 40 40 39 38 36 33 30 26 23 19 20 22 23 24
13 21 30 33 33 32 36 41 47 35 36 35 49 46 44 47 45 45 43 44 42 42 42 42 42 41 41 40 40 40 40 41 39 39 36 33 28 24 24 24 25 25 25
11 19 23 32 32 34 32 37 37 42 39 39 37 39 51 50 52 49 47 46 44 42 42 41 42 42 41 41 41 40 42 43 43 41 40 37 32 27 27 27 28 27 27
12 16 19 26 29 32 34 32 35 34 42 34 34 34 45 46 47 49 46 45 46 45 45 43 43 42 42 41 41 43 44 45 46 46 44 40 35 33 34 32 30 30 34
12 16 17 16 25 30 30 27 32 30 34 36 44 42 44 46 54 49 45 51 47 47 45 45 46 44 44 44 44 45 45 45 44 45 45 42 39 41 38 37 37 36 37
14 16 17 15 20 25 28 33 37 36 27 29 37 35 48 49 49 55 53 51 52 52 47 45 46 46 45 43 47 47 48 47 45 45 47 46 46 45 43 42 40 40 39
17 16 17 18 17 20 25 30 34 34 35 34 37 32 26 38 50 48 58 59 54 49 48 51 50 48 48 47 46 47 48 44 45 46 47 47 47 48 48 48 46 44 42
16 19 19 18 18 18 22 24 26 28 33 41 35 34 27 22 22 38 39 48 58 57 62 58 54 54 50 49 47 49 47 46 47 50 50 51 51 52 51 51 51 48 45
17 16 21 19 20 21 21 24 27 30 33 33 34 38 35 33 27 25 31 36 34 26 28 50 60 55 53 54 50 50 47 48 52 53 54 54 53 50 50 52 53 52 50
18 17 17 21 22 22 23 24 27 27 28 33 33 34 35 34 34 36 36 35 41 42 33 28 25 42 36 49 52 52 57 55 52 56 57 53 55 54 54 53 53 54 54
19 18 18 18 20 23 24 25 26 26 29 30 30 35 35 34 36 36 36 37 34 35 30 28 28 29 27 34 41 44 47 50 57 52 55 57 51 53 56 59 53 53 58
19 18 18 19 18 20 23 25 26 26 28 31 32 34 40 42 40 38 42 43 43 43 44 44 41 37 32 31 29 38 41 48 51 55 50 55 56 56 60 55 55 61 60
18 18 18 17 18 17 19 21 23 25 26 27 31 34 36 38 40 41 39 39 41 42 44 45 45 44 48 43 37 40 45 42 38 43 53 61 55 49 55 55 55 58 63
18 18 18 17 17 17 17 18 20 22 24 26 29 28 30 33 35 36 38 42 41 39 40 42 44 44 50 48 48 48 47 48 46 44 46 45 43 43 42 57 57 54 49
18 18 18 18 17 17 17 17 17 19 21 22 24 26 27 30 30 31 32 33 37 39 39 38 38 36 37 40 42 45 45 48 47 48 46 47 47 46 46 47 53 54 55
19 18 18 17 17 17 18 18 18 18 18 19 21 23 23 25 27 28 28 29 31 33 35 38 39 37 37 37 38 37 39 42 41 41 41 42 43 45 45 47 51 50 53
19 19 18 18 18 18 18 18 19 19 19 19 18 20 21 21 23 24 26 28 30 30 30 33 36 37 38 38 38 39 40 38 37 38 36 35 35 37 37 40 42 41 42
19 19 19 19 20 20 20 20 20 21 21 21 20 20 20 21 21 21 23 24 25 27 29 30 32 34 35 37 38 39 39 40 41 41 41 40 39 38 36 36 34 32 33
21 20 21 21 21 21 22 21 21 21 21 23 23 22 22 21 22 22 22 23 23 24 26 28 30 32 33 33 35 36 37 37 38 39 39 39 39 39 39 39 39 38 40
22 23 23 23 23 23 22 22 21 20 19 19 21 22 23 23 23 23 24 24 24 24 24 24 25 28 31 31 32 33 34 35 35 36 37 38 38 38 38 39 39 40 40
22 24 24 23 23 22 20 19 18 17 18 18 18 18 20 21 22 23 24 25 25 25 25 26 26 25 26 28 29 30 31 32 33 33 33 35 36 36 37 38 38 38 38
19 19 20 20 21 21 21 20 20 20 20 20 19 19 19 19 19 20 21 22 24 25 26 26 27 26 26 26 26 27 27 27 27 28 30 30 31 33 34 34 35 36 37
Wind_Direction
230 231 241 232 236 237 228 237 245 231 217 219 214 216 219 220 222 221 219 219 222 218 218 218 216 218 217 218 221 219 219 217 217 219 221 228 231 234 234 232 231 228 228
227 230 240 225 230 230 228 223 225 210 220 213 215 213 217 220 222 222 220 220 222 221 220 221 219 219 219 219 222 222 222 220 219 221 222 227 232 235 237 234 234 232 231
220 226 226 232 230 226 233 218 207 215 218 215 221 211 215 218 220 220 219 220 221 221 221 222 221 222 221 220 222 223 222 222 223 224 223 228 232 235 241 242 239 237 236
224 221 222 226 227 232 232 217 220 217 219 215 217 219 212 215 218 218 219 218 219 219 219 220 221 223 223 223 224 225 223 223 225 229 225 229 233 236 241 244 244 243 239
217 221 227 215 222 234 227 237 235 218 201 209 213 212 210 213 216 217 217 218 218 219 217 219 221 222 223 223 224 226 226 225 226 230 231 232 233 239 249 249 244 242 243
212 218 216 221 222 227 223 219 215 215 198 203 231 217 217 217 216 216 217 219 217 219 220 219 219 221 222 222 224 225 225 228 230 233 236 235 237 240 245 248 249 250 249
207 220 207 214 214 223 227 227 230 239 233 212 200 229 222 219 217 218 216 217 219 219 221 223 222 221 224 224 224 225 225 225 229 233 237 237 235 239 248 250 251 251 252
214 218 218 200 199 201 214 222 227 226 248 249 240 207 223 225 220 217 218 223 222 220 220 221 225 224 225 228 228 229 228 228 228 230 234 237 237 236 244 252 252 250 250
229 221 217 200 203 208 215 220 227 230 221 225 232 234 230 229 229 223 219 220 225 225 225 225 226 226 224 227 229 231 233 234 234 237 238 238 240 240 241 246 250 255 258
245 231 221 207 195 197 200 199 205 204 221 222 211 212 222 223 230 222 223 216 224 224 224 227 229 231 231 228 231 233 235 235 235 235 237 237 237 241 244 246 249 252 258
259 249 233 224 208 191 192 200 208 214 216 222 221 223 215 215 216 216 214 219 212 218 228 227 228 229 231 230 231 235 237 240 242 242 240 240 240 241 244 248 249 252 256
267 255 247 235 232 221 210 206 210 211 209 212 217 219 210 231 241 215 206 209 215 214 225 227 231 236 237 235 232 234 236 238 241 242 243 243 243 243 244 247 251 252 254
275 263 254 246 243 233 224 215 210 210 214 215 206 219 217 221 223 237 239 219 215 242 219 224 226 223 228 237 235 236 233 241 241 243 244 246 246 249 250 250 251 252 253
270 270 263 256 244 241 238 233 222 217 209 205 206 221 229 228 221 222 225 230 233 247 267 265 249 228 227 226 232 240 241 242 243 242 246 253 252 249 249 251 252 254 254
265 266 266 264 258 245 240 238 238 232 227 226 223 223 225 225 226 223 226 227 227 222 230 244 254 262 244 233 230 230 232 235 243 245 245 242 252 251 251 253 249 251 253
260 263 263 262 261 258 250 242 239 240 234 232 231 232 234 232 230 227 225 226 230 231 226 226 228 229 236 237 246 242 234 241 231 236 239 244 246 252 253 250 249 250 255
257 258 261 260 260 259 258 252 246 243 242 238 235 234 230 229 226 228 229 225 232 231 228 233 232 231 236 232 233 240 244 242 244 242 245 240 245 250 252 252 254 252 248
255 255 256 258 257 258 258 259 257 250 247 244 241 240 241 240 234 231 230 231 229 231 230 235 237 237 239 242 240 240 240 245 240 244 250 249 253 254 254 249 254 252 253
254 253 254 255 256 255 256 257 257 258 257 255 252 248 245 244 246 244 241 236 231 231 232 232 232 230 230 230 232 234 235 238 239 242 244 246 247 250 252 253 249 250 248
250 252 252 255 258 258 257 257 258 257 256 258 259 258 255 252 249 248 247 245 238 237 236 234 235 235 235 233 234 236 239 241 243 243 242 242 243 244 248 249 250 253 252
245 249 252 255 259 263 264 263 261 261 260 258 254 257 259 259 257 253 250 248 247 242 239 240 237 236 236 235 234 235 236 237 238 242 243 243 245 247 248 246 246 248 250
241 244 252 261 266 269 269 269 267 265 263 261 259 256 253 254 257 258 258 253 251 250 247 243 242 240 240 239 237 237 237 237 237 237 239 242 243 242 241 241 242 242 237
242 248 255 261 268 272 275 274 272 268 265 263 261 260 258 254 252 252 254 256 256 255 253 251 248 245 243 242 242 242 242 242 243 243 243 244 246 246 246 246 245 243 241
246 251 258 263 269 272 274 276 276 273 267 263 261 259 257 256 254 252 251 250 250 252 254 255 256 255 252 249 246 245 246 247 247 248 248 248 248 248 248 249 248 248 249
248 254 260 266 270 272 274 273 270 267 268 268 265 263 259 257 256 254 253 252 251 250 250 251 253 255 257 257 255 253 250 248 249 249 251 252 253 252 252 253 253 253 254
255 258 261 264 267 269 270 270 269 269 267 265 264 263 263 262 260 258 256 255 254 253 251 250 249 250 251 252 256 259 259 258 257 256 255 253 253 253 253 254 256 257 258
Height
2954 2962 2968 2975 2982 2986 2992 2999 3002 3003 3016 3027 3038 3047 3054 3060 3066 3072 3078 3084 3089 3095 3101 3107 3115 3120 3125 3130 3134 3139 3144 3149 3154 3157 3161 3164 3167 3169 3171 3173 3175 3176 3178
2947 2954 2961 2970 2975 2981 2984 2993 2995 3002 3009 3016 3029 3038 3046 3052 3058 3065 3071 3076 3081 3087 3095 3102 3108 3113 3118 3124 3128 3133 3138 3143 3148 3152 3156 3159 3163 3165 3167 3169 3171 3172 3175
2941 2947 2954 2960 2967 2973 2982 2988 2988 2992 2999 3007 3015 3026 3036 3043 3050 3057 3063 3069 3075 3081 3088 3095 3101 3106 3111 3117 3122 3127 3132 3136 3140 3145 3150 3153 3156 3160 3162 3164 3166 3168 3170
2936 2941 2948 2955 2959 2965 2973 2979 2978 2987 2992 3000 3007 3019 3027 3035 3043 3049 3055 3061 3067 3074 3080 3087 3093 3099 3105 3111 3115 3120 3125 3129 3133 3138 3144 3147 3151 3154 3156 3159 3161 3163 3165
2933 2938 2943 2948 2954 2959 2966 2975 2978 2983 2989 2990 2998 3007 3018 3026 3033 3039 3046 3052 3059 3066 3072 3079 3085 3091 3098 3103 3108 3113 3117 3121 3126 3130 3136 3140 3144 3148 3152 3154 3155 3157 3159
2930 2935 2940 2944 2949 2954 2961 2969 2976 2977 2979 2985 2991 2999 3007 3017 3024 3030 3038 3044 3051 3057 3063 3070 3076 3083 3087 3093 3098 3104 3110 3114 3119 3123 3129 3134 3138 3142 3144 3146 3150 3150 3154
2928 2931 2933 2939 2943 2950 2954 2962 2967 2969 2975 2978 2983 2989 2994 3000 3011 3020 3027 3035 3042 3050 3056 3062 3068 3074 3080 3085 3090 3095 3100 3104 3110 3115 3119 3125 3131 3136 3137 3138 3141 3142 3146
2925 2929 2931 2932 2937 2943 2949 2954 2957 2962 2967 2972 2979 2981 2987 2993 3003 3014 3022 3030 3035 3041 3047 3053 3060 3066 3071 3076 3081 3085 3089 3094 3099 3104 3109 3116 3124 3126 3128 3131 3133 3134 3135
2921 2925 2927 2927 2930 2934 2940 2945 2952 2956 2958 2964 2971 2976 2983 2990 2994 3002 3014 3020 3026 3032 3038 3044 3050 3055 3062 3067 3071 3075 3080 3085 3091 3096 3101 3107 3112 3117 3120 3120 3121 3125 3126
2917 2919 2921 2923 2924 2927 2933 2939 2946 2947 2953 2960 2963 2969 2975 2982 2986 2993 3002 3006 3013 3021 3026 3033 3039 3045 3052 3058 3060 3065 3068 3075 3080 3085 3090 3095 3100 3103 3106 3109 3114 3114 3117
2913 2914 2916 2918 2920 2922 2925 2930 2935 2941 2946 2951 2956 2964 2971 2974 2976 2983 2989 2993 2998 3006 3014 3021 3024 3032 3038 3045 3050 3054 3059 3068 3071 3075 3080 3083 3087 3090 3093 3097 3102 3106 3107
2910 2910 2911 2913 2916 2917 2921 2924 2929 2935 2939 2942 2946 2954 2960 2965 2969 2973 2977 2982 2987 2994 3001 3008 3013 3020 3026 3033 3039 3044 3050 3055 3059 3062 3065 3069 3073 3077 3083 3086 3090 3095 3097
2906 2907 2908 2909 2911 2912 2915 2918 2922 2926 2930 2934 2935 2948 2953 2956 2960 2967 2972 2977 2978 2982 2988 2995 3000 3006 3014 3021 3027 3032 3039 3043 3046 3049 3052 3057 3063 3069 3074 3076 3079 3081 3085
2902 2903 2904 2905 2906 2908 2910 2912 2914 2918 2920 2925 2929 2938 2944 2949 2950 2958 2964 2969 2973 2974 2978 2987 2991 2994 2999 3005 3012 3019 3025 3029 3033 3036 3040 3046 3050 3055 3058 3063 3067 3069 3070
2898 2899 2900 2901 2901 2903 2905 2907 2909 2910 2912 2916 2923 2929 2935 2938 2942 2948 2955 2959 2964 2967 2970 2974 2980 2985 2991 2992 2998 3004 3010 3015 3020 3024 3027 3032 3035 3038 3043 3048 3052 3056 3056
2894 2894 2896 2896 2897 2897 2898 2901 2902 2905 2907 2911 2914 2919 2925 2928 2933 2938 2943 2949 2953 2956 2961 2965 2968 2972 2978 2983 2987 2991 2996 3001 3004 3009 3014 3017 3021 3024 3027 3031 3035 3040 3043
2891 2891 2891 2892 2893 2894 2894 2895 2897 2899 2901 2903 2906 2911 2915 2919 2922 2927 2932 2935 2940 2945 2950 2955 2956 2960 2966 2970 2974 2980 2985 2990 2993 2996 3000 3003 3006 3009 3012 3014 3018 3023 3026
2886 2888 2888 2889 2890 2891 2891 2893 2893 2894 2896 2898 2900 2902 2905 2909 2911 2916 2920 2925 2929 2934 2937 2940 2944 2947 2953 2957 2963 2970 2972 2976 2979 2983 2986 2990 2993 2995 2997 2999 3002 3006 3008
2881 2883 2884 2885 2886 2887 2887 2888 2888 2889 2890 2891 2893 2895 2897 2899 2903 2907 2910 2914 2917 2921 2925 2929 2933 2936 2940 2944 2950 2955 2958 2962 2965 2969 2972 2974 2977 2980 2983 2986 2988 2991 2994
2876 2878 2879 2880 2881 2882 2883 2884 2884 2884 2885 2886 2887 2888 2890 2892 2895 2898 2900 2904 2906 2910 2914 2917 2922 2926 2929 2934 2938 2944 2946 2950 2953 2956 2959 2961 2962 2965 2968 2971 2974 2977 2980
2870 2872 2873 2875 2876 2876 2877 2878 2879 2879 2880 2881 2882 2884 2885 2886 2887 2889 2892 2895 2898 2902 2904 2907 2911 2915 2919 2922 2926 2931 2936 2939 2942 2944 2947 2949 2951 2953 2955 2956 2960 2962 2964
2865 2867 2868 2868 2869 2870 2871 2872 2872 2873 2873 2875 2876 2877 2879 2880 2882 2883 2885 2887 2889 2891 2894 2899 2902 2904 2908 2911 2913 2918 2924 2929 2931 2932 2933 2937 2939 2943 2945 2948 2950 2951 2953
2859 2861 2862 2863 2863 2864 2864 2864 2864 2865 2866 2867 2868 2870 2871 2872 2874 2876 2878 2880 2882 2884 2886 2889 2892 2895 2898 2900 2902 2906 2912 2916 2919 2921 2922 2926 2928 2930 2933 2936 2940 2941 2944
2853 2855 2856 2856 2857 2857 2857 2857 2857 2858 2858 2859 2860 2861 2863 2865 2867 2869 2871 2874 2876 2877 2879 2881 2883 2886 2888 2889 2891 2896 2900 2904 2907 2910 2911 2914 2917 2919 2922 2924 2928 2929 2931
2847 2848 2849 2849 2850 2850 2851 2851 2852 2852 2852 2853 2854 2855 2856 2858 2859 2860 2862 2865 2866 2869 2871 2873 2876 2877 2879 2881 2883 2886 2889 2893 2895 2898 2900 2903 2906 2908 2910 2914 2916 2917 2919
2841 2842 2843 2843 2843 2843 2844 2845 2845 2845 2846 2847 2848 2849 2850 2851 2851 2853 2855 2856 2858 2860 2863 2865 2868 2869 2872 2873 2875 2878 2880 2883 2886 2887 2889 2892 2895 2899 2900 2901 2904 2905 2909